Tracking 29892 objects as of 21-Nov-2024
HD Live streaming from Space Station
objects crossing your sky now

DRAGRACER 2(AUGURY)

Track DRAGRACER 2(AUGURY) now!
10-day predictions


NORAD ID: 46955
Int'l Code: 2020-085AC
Perigee: 446.1 km
Apogee: 457.4 km
Inclination: 97.6 °
Period: 93.5 minutes
Semi major axis: 6822 km
RCS: Unknown
Launch date: November 20, 2020
Source: United States (US)
Launch site: Rocket Lab Launch Complex (RLLC)
Your satellite tracking list
Your tracking list is empty




NASA's NSSDC Master Catalog

Two Line Element Set (TLE):
1 46955U 20085AC  24325.89030047  .00019888  00000-0  49126-3 0  9990
2 46955  97.5609 117.9285 0008323 205.4875 154.5962 15.40501932222825
Source of the keplerian elements: AFSPC